Location: Newark
(27.2452°N, 107.0032°W)
Time: 14:35:32
(UTC+00:00)

Hubble Space Telescope - Pass Details

Date: 18 December 2019
Orbit: 536 x 540 km, 28.5° (Epoch: 24 January)

Event Time Altitude Azimuth Distance (km) Brightness Sun altitude
Exits shadow 12:31:43 38° 281° (W) 826 1.2 -17.3°
Maximum altitude 12:33:11 74° 357° (N) 558 0.7 -17.0°
Drops below altitude 10° 12:37:19 10° 83° (E) 1,786 4.5 -16.2°
Sets 12:39:35 0° 85° (E) 2,677 5.6 -15.7°
